Change the Weather History Date:

Sunday, December 23, 2012

  Actual Average Record
Temperature  
Mean Temperature 48 °F -  
Max Temperature 51 °F 43 °F 53 °F (2002)
Min Temperature 46 °F 34 °F 21 °F (2001)
Degree Days  
Heating Degree Days 16    
Moisture  
Dew Point 39 °F    
Average Humidity 70    
Maximum Humidity 76    
Minimum Humidity 66    
Precipitation  
Precipitation 0.00 in - - ()
Sea Level Pressure  
Sea Level Pressure 29.37 in    
Wind  
Wind Speed 26 mph ()    
Max Wind Speed 38 mph    
Max Gust Speed 52 mph    
Visibility 6.2 miles    
Events      
Averages and records for this station are not official NWS values.
T = Trace of Precipitation, MM = Missing Value Source: Averaged Metar Reports

Daily Weather History Graph

Daily Weather History Graph

Search for Another Location

Airport or City:

Trip Planner

Search our weather history database for the weather conditions in past years. The results will help you decide how hot, cold, wet, or windy it might be!

Date:

Astronomy

Dec. 23, 2012 Rise Set
Actual Time 8:26 AM GMT 3:43 PM GMT
Civil Twilight 7:42 AM GMT 4:27 PM GMT
Nautical Twilight 6:55 AM GMT 5:14 PM GMT
Astronomical Twilight 6:11 AM GMT 5:58 PM GMT
Moon 12:47 PM GMT (12/23) 3:30 AM GMT (12/23)
Length of Visible Light 8h 45m
Length of Day
7h 16m
Waxing Gibbous, 80% of the Moon is Illuminated
Dec 23
Waxing Gibbous
Dec 28
Full
Jan 5
Last Quarter
Jan 11
New
Jan 18
First Quarter

Hourly Weather History & Observations

Time (GMT) Temp. Windchill Dew Point Humidity Pressure Visibility Wind Dir Wind Speed Gust Speed Precip Events Conditions
5:50 AM 51.8 °F - 44.6 °F 76% 29.21 in 6.2 mi SW 24.2 mph 36.8 mph N/A   Scattered Clouds
6:20 AM 51.8 °F - 44.6 °F 76% 29.21 in 6.2 mi SW 27.6 mph - N/A   Scattered Clouds
6:50 AM 51.8 °F - 41.0 °F 67% 29.18 in 6.2 mi WSW 38.0 mph 51.8 mph N/A   Partly Cloudy
7:20 AM 50.0 °F - 41.0 °F 71% 29.18 in 6.2 mi WSW 35.7 mph - N/A   Partly Cloudy
7:50 AM 50.0 °F - 39.2 °F 66% 29.21 in 6.2 mi WSW 38.0 mph 50.6 mph N/A   Partly Cloudy
8:21 AM 48.2 °F - 41.0 °F 76% 29.24 in 6.2 mi SW 32.2 mph - N/A   Partly Cloudy
8:50 AM 48.2 °F - 39.2 °F 71% 29.24 in 6.2 mi WSW 33.4 mph - N/A   Partly Cloudy
9:20 AM 48.2 °F - 39.2 °F 71% 29.27 in 6.2 mi SW 38.0 mph 50.6 mph N/A   Partly Cloudy
9:50 AM 48.2 °F - 39.2 °F 71% 29.27 in 6.2 mi SW 33.4 mph 46.0 mph N/A   Partly Cloudy
10:20 AM 48.2 °F - 39.2 °F 71% 29.30 in 6.2 mi WSW 35.7 mph 47.2 mph N/A   Partly Cloudy
10:50 AM 48.2 °F - 37.4 °F 66% 29.33 in 6.2 mi WSW 36.8 mph 51.8 mph N/A   Partly Cloudy
11:20 AM 48.2 °F - 39.2 °F 71% 29.33 in 6.2 mi WSW 34.5 mph 46.0 mph N/A   Partly Cloudy
11:50 AM 50.0 °F - 39.2 °F 66% 29.33 in 6.2 mi WSW 29.9 mph 43.7 mph N/A   Partly Cloudy
12:20 PM 50.0 °F - 39.2 °F 66% 29.36 in 6.2 mi WSW 28.8 mph - N/A   Partly Cloudy
12:50 PM 50.0 °F - 39.2 °F 66% 29.36 in 6.2 mi WSW 27.6 mph - N/A   Partly Cloudy
1:20 PM 50.0 °F - 39.2 °F 66% 29.36 in 6.2 mi WSW 29.9 mph - N/A   Partly Cloudy
1:50 PM 50.0 °F - 39.2 °F 66% 29.39 in 6.2 mi WSW 24.2 mph - N/A   Partly Cloudy
2:20 PM 50.0 °F - 39.2 °F 66% 29.39 in 6.2 mi WSW 24.2 mph - N/A   Partly Cloudy
2:50 PM 48.2 °F - 39.2 °F 71% 29.39 in 6.2 mi WSW 21.9 mph - N/A   Partly Cloudy
3:20 PM 48.2 °F - 39.2 °F 71% 29.42 in 6.2 mi WSW 26.5 mph - N/A   Partly Cloudy
3:50 PM 48.2 °F - 37.4 °F 66% 29.42 in 6.2 mi WSW 20.7 mph - N/A   Partly Cloudy
4:20 PM 48.2 °F - 37.4 °F 66% 29.44 in 6.2 mi WSW 21.9 mph - N/A   Partly Cloudy
4:50 PM 48.2 °F - 37.4 °F 66% 29.44 in 6.2 mi WSW 25.3 mph 39.1 mph N/A   Partly Cloudy
5:20 PM 48.2 °F - 37.4 °F 66% 29.44 in 6.2 mi WSW 25.3 mph 36.8 mph N/A   Partly Cloudy
5:50 PM 46.4 °F 38.1 °F 37.4 °F 71% 29.44 in 6.2 mi WSW 24.2 mph - N/A   Partly Cloudy
6:20 PM 46.4 °F 38.7 °F 37.4 °F 71% 29.47 in 6.2 mi WSW 20.7 mph - N/A   Partly Cloudy
6:50 PM 46.4 °F 39.0 °F 37.4 °F 71% 29.47 in 6.2 mi WSW 19.6 mph - N/A   Partly Cloudy
7:20 PM 46.4 °F 39.2 °F 37.4 °F 71% 29.50 in 6.2 mi WSW 18.4 mph - N/A   Partly Cloudy
7:50 PM 48.2 °F - 39.2 °F 71% 29.50 in 6.2 mi WSW 16.1 mph - N/A   Partly Cloudy
8:20 PM 48.2 °F - 39.2 °F 71% 29.50 in - WSW 20.7 mph 32.2 mph N/A   Clear
8:50 PM 48.2 °F - 39.2 °F 71% 29.53 in - WSW 18.4 mph - N/A   Clear
9:20 PM 48.2 °F - 37.4 °F 66% 29.53 in 6.2 mi SW 16.1 mph - N/A   Partly Cloudy
9:50 PM 46.4 °F 39.0 °F 39.2 °F 76% 29.53 in 6.2 mi SW 19.6 mph - N/A   Partly Cloudy